Regional Weather Roundup
Issued by NWS

Home | Current Version | Previous Version | Text Only | Print | Product List | Glossary On
Versions: 1 2 3 4 5 6 7 8 9 10 11 12 13 14 15 16 17 18 19 20 21 22 23 24 25 26 27 28 29 30 31 32 33 34 35 36 37 38 39 40 41 42 43 44 45 46 47 48 49 50
321
ASUS44 KJAN 211103
RWRMS

MISSISSIPPI HOURLY WEATHER ROUNDUP
NATIONAL WEATHER SERVICE JACKSON MS
500 AM CST SUN DEC 21 2014

NOTE: "FAIR: INDICATES FEW OR NO CLOUDS BELOW 12,000 FEET WITH NO
SIGNIFICANT WEATHER AND/OR OBSTRUCTIONS TO VISIBILITY.

MSZ001>002-007>008-010>013-018>021-025>028-034>036-211200-
NORTHWEST MISSISSIPPI

CITY           SKY/WX    TMP DP  RH WIND       PRES   REMARKS
CLARKSDALE     FAIR      32  32 100 CALM      30.20S
CLEVELAND      FAIR      35  35  98 CALM      30.18S
GREENWOOD      CLEAR     33  30  88 CALM      30.18F
GREENVILLE     CLEAR     35  33  92 CALM      30.17S FOG
GRENADA        FAIR      32  32 100 CALM      30.20S
OLIVE BRANCH   CLEAR     32  32 100 CALM      30.21S
OXFORD         FAIR      28  27  93 CALM      30.20F
TUNICA         SUNNY     34  32  93 NE3       30.21S
$$

MSZ003>006-009-014>017-022>024-029>033-037>039-211200-
NORTHEAST MISSISSIPPI

CITY           SKY/WX    TMP DP  RH WIND       PRES   REMARKS
COLUMBUS AFB   CLEAR     31  30  96 CALM      30.19S
CORINTH        FAIR      28  27  93 CALM      30.20S
GOLDN TRIANGLE CLEAR     30  28  93 NW5       30.17R WCI  25
STARKVILLE     FAIR      30  30 100 CALM      30.18S FOG
TUPELO         CLEAR     29  26  89 NE7       30.19S WCI  22
$$

MSZ040-058-211200-
CENTRAL MISSISSIPPI

CITY           SKY/WX    TMP DP  RH WIND       PRES   REMARKS
JACKSON INTL   CLEAR     38  35  89 NE6       30.15F WCI  33
JACKSON HAWKNS CLEAR     37  35  92 CALM      30.15S
MERIDIAN KEY   CLOUDY    36  34  92 N5        30.16S WCI  32
MERIDIAN NAS   CLOUDY    37  34  89 CALM      30.16F
RAYMOND        FAIR      32  28  86 CALM      30.16S FOG
VICKSBURG      CLEAR     37  34  89 CALM      30.16F
$$

MSZ059>079-211200-
SOUTH MISSISSIPPI

CITY           SKY/WX    TMP DP  RH WIND       PRES   REMARKS
HATTIESBURG    MOCLDY    46  42  86 CALM      30.14F
MCCOMB         CLEAR     42  38  85 NE6       30.11F
NATCHEZ        CLEAR     36  32  87 CALM      30.13F
PINE BELT      CLEAR     41  37  87 NE5       30.13F
$$

MSZ080>082-211200-
COASTAL MISSISSIPPI

CITY           SKY/WX    TMP DP  RH WIND       PRES   REMARKS
BILOXI         NOT AVBL
PASCAGOULA     CLOUDY    51  48  89 N6        30.11S
GULFPORT       CLOUDY    50  46  86 NE6       30.11S
$$



USA.gov is the U.S. government's official web portal to all federal, state and local government web resources and services.